Tracking 22779 objects as of 10-Apr-2021
HD Live streaming from Space Station
objects crossing your sky now

TITAN 3C TRANSTAGE DEB

Track TITAN 3C TRANSTAGE DEB now!


NORAD ID: 43454
Int'l Code: 1969-013M
Perigee: 32,796.4 km
Apogee: 37,378.8 km
Inclination: 4.1 °
Period: 1,400.2 minutes
Semi major axis: 41458 km
RCS: Unknown
Launch date: February 9, 1969
Source: United States (US)
Launch site: AIR FORCE EASTERN TEST RANGE (AFETR)

Note: This is SATELLITE DEBRIS
aabbcc
Your satellite tracking list
Your tracking list is empty




NASA's NSSDC Master Catalog

Two Line Element Set (TLE):
1 43454U 69013M   21099.65229054 -.00000122  00000-0  00000-0 0  9999
2 43454   4.0579 279.2746 0552642 163.1104 198.4202  1.02844414 11145
Source of the keplerian elements: AFSPC